MAS778 WMKK-VHHX

Flight info

Callsign MAS778
Flight time N/A
Altitude 35000
Route KIMAT2D KIMAT Y344 VPK L629 DOLOX/N0470F360 M771 DUDIS/K0870F360 M771 DOSUT/N0469F360 M771 DULOP/N0466F370 M771 DUMOL DUMOL13
Aircraft B38M/M-SDE1FGHILORVWXY/HB1

Departure

Time N/A
Airport Kuala Lumpur International Airport (WMKK)

Arrival

Time 2026-05-06 11:55
Airport Hong Kong International Airport Kai Tak (VHHX)
Time Latitude Longitude Altitude Speed Heading
2026-05-06 10:51 17.04129 113.68574 35252 ft 441 kts 34°
2026-05-06 10:52 17.06626 113.70358 35250 ft 441 kts 34°
2026-05-06 10:52 17.11707 113.73952 35250 ft 441 kts 34°
2026-05-06 10:53 17.16776 113.77578 35252 ft 441 kts 34°
2026-05-06 10:53 17.21852 113.81191 35250 ft 441 kts 34°
2026-05-06 10:54 17.26921 113.84811 35250 ft 441 kts 34°
2026-05-06 10:54 17.31991 113.88431 35251 ft 441 kts 34°
2026-05-06 10:55 17.37062 113.92055 35250 ft 441 kts 34°
2026-05-06 10:55 17.42132 113.95680 35250 ft 441 kts 34°
2026-05-06 10:56 17.47202 113.99308 35251 ft 441 kts 34°
2026-05-06 10:56 17.52271 114.02938 35250 ft 441 kts 34°
2026-05-06 10:57 17.57339 114.06570 35251 ft 441 kts 34°
2026-05-06 10:57 17.62406 114.10202 35251 ft 441 kts 34°
2026-05-06 10:58 17.67473 114.13838 35252 ft 441 kts 34°
2026-05-06 10:58 17.72544 114.17480 35258 ft 441 kts 34°
2026-05-06 10:59 17.77611 114.21121 35251 ft 441 kts 34°
2026-05-06 10:59 17.82682 114.24767 35251 ft 441 kts 34°
2026-05-06 11:00 17.87717 114.28390 35251 ft 442 kts 34°
2026-05-06 11:00 17.92784 114.32039 35251 ft 442 kts 34°
2026-05-06 11:01 17.97851 114.35689 35252 ft 442 kts 34°
2026-05-06 11:01 18.02918 114.39343 35252 ft 442 kts 34°
2026-05-06 11:02 18.07987 114.43001 35250 ft 442 kts 34°
2026-05-06 11:02 18.13055 114.46660 35255 ft 442 kts 34°
2026-05-06 11:03 18.18118 114.50320 35254 ft 442 kts 34°
2026-05-06 11:03 18.23515 114.53296 35263 ft 440 kts 14°
2026-05-06 11:03 18.26531 114.53791 35276 ft 439 kts
2026-05-06 11:04 18.29579 114.53607 35252 ft 439 kts 353°
2026-05-06 11:04 18.35641 114.52816 35254 ft 439 kts 353°
2026-05-06 11:05 18.41710 114.52059 35249 ft 439 kts 353°
2026-05-06 11:05 18.47783 114.51289 35255 ft 439 kts 353°
2026-05-06 11:06 18.53853 114.50521 35250 ft 439 kts 353°
2026-05-06 11:06 18.59925 114.49754 35251 ft 439 kts 353°
2026-05-06 11:07 18.65997 114.48984 35251 ft 440 kts 353°
2026-05-06 11:07 18.72076 114.48214 35251 ft 440 kts 353°
2026-05-06 11:08 18.78149 114.47443 35253 ft 440 kts 353°
2026-05-06 11:08 18.84224 114.46672 35252 ft 440 kts 353°
2026-05-06 11:09 18.90300 114.45900 35260 ft 440 kts 353°
2026-05-06 11:09 18.96336 114.45133 35249 ft 440 kts 353°
2026-05-06 11:10 19.02425 114.44470 35244 ft 440 kts 355°
2026-05-06 11:10 19.08517 114.43880 35247 ft 440 kts 354°
2026-05-06 11:11 19.14616 114.43336 35248 ft 440 kts 355°
2026-05-06 11:11 19.20712 114.42775 35249 ft 440 kts 354°
2026-05-06 11:12 19.26810 114.42217 35249 ft 440 kts 355°
2026-05-06 11:12 19.32912 114.41660 35250 ft 440 kts 355°
2026-05-06 11:13 19.39013 114.41100 35251 ft 440 kts 355°
2026-05-06 11:13 19.45114 114.40541 35251 ft 440 kts 355°
2026-05-06 11:14 19.51219 114.39981 35251 ft 440 kts 355°
2026-05-06 11:14 19.57324 114.39420 35251 ft 440 kts 355°
2026-05-06 11:15 19.63382 114.38863 35250 ft 440 kts 355°
2026-05-06 11:15 19.69488 114.38302 35251 ft 440 kts 355°
2026-05-06 11:16 19.75580 114.37740 35247 ft 439 kts 355°
2026-05-06 11:16 19.81662 114.37182 35247 ft 438 kts 355°
2026-05-06 11:17 19.87731 114.36621 35244 ft 437 kts 355°
2026-05-06 11:17 19.93793 114.36063 35241 ft 437 kts 355°
2026-05-06 11:18 19.99839 114.35504 35239 ft 436 kts 355°
2026-05-06 11:18 20.05880 114.34946 35237 ft 435 kts 355°
2026-05-06 11:19 20.11909 114.34389 35238 ft 435 kts 355°
2026-05-06 11:19 20.17943 114.33830 35236 ft 434 kts 355°
2026-05-06 11:20 20.23914 114.33278 35238 ft 433 kts 355°
2026-05-06 11:20 20.29922 114.32721 35237 ft 433 kts 355°
2026-05-06 11:21 20.35921 114.32164 35239 ft 432 kts 355°
2026-05-06 11:21 20.41917 114.31608 35237 ft 432 kts 355°
2026-05-06 11:22 20.47902 114.31052 35240 ft 431 kts 355°
2026-05-06 11:22 20.53878 114.30496 35237 ft 431 kts 355°
2026-05-06 11:22 20.56879 114.30217 34998 ft 437 kts 355°
2026-05-06 11:23 20.59960 114.29930 34378 ft 451 kts 355°
2026-05-06 11:23 20.63137 114.29634 33741 ft 466 kts 355°
2026-05-06 11:23 20.66413 114.29329 33087 ft 480 kts 355°
2026-05-06 11:23 20.69794 114.29015 32381 ft 494 kts 355°
2026-05-06 11:24 20.73238 114.28694 31642 ft 499 kts 355°
2026-05-06 11:24 20.76705 114.28370 30877 ft 501 kts 355°
2026-05-06 11:24 20.80179 114.28046 30100 ft 502 kts 355°
2026-05-06 11:24 20.83619 114.27725 29307 ft 504 kts 355°
2026-05-06 11:25 20.87118 114.27398 28479 ft 505 kts 355°
2026-05-06 11:25 20.90625 114.27071 27657 ft 507 kts 355°
2026-05-06 11:25 20.94146 114.26741 26817 ft 509 kts 355°
2026-05-06 11:25 20.97679 114.26411 25981 ft 510 kts 355°
2026-05-06 11:26 21.01221 114.26080 25149 ft 512 kts 355°
2026-05-06 11:26 21.03622 114.25855 24572 ft 513 kts 355°
2026-05-06 11:26 21.08345 114.25413 23468 ft 515 kts 355°
2026-05-06 11:26 21.10760 114.25186 22892 ft 516 kts 355°
2026-05-06 11:27 21.14307 114.24854 22060 ft 518 kts 355°
2026-05-06 11:27 21.17879 114.24519 21192 ft 500 kts 355°
2026-05-06 11:27 21.21182 114.24213 20428 ft 455 kts 355°
2026-05-06 11:27 21.24307 114.23919 19712 ft 448 kts 354°
2026-05-06 11:28 21.27427 114.23622 18989 ft 457 kts 354°
2026-05-06 11:28 21.30652 114.23318 18229 ft 471 kts 355°
2026-05-06 11:28 21.33834 114.23022 17469 ft 442 kts 355°
2026-05-06 11:28 21.36749 114.22752 17061 ft 401 kts 355°
2026-05-06 11:29 21.39475 114.22495 15901 ft 388 kts 354°
2026-05-06 11:29 21.42141 114.22241 14681 ft 381 kts 354°
2026-05-06 11:29 21.44815 114.21988 14244 ft 391 kts 354°
2026-05-06 11:29 21.47548 114.21730 14193 ft 397 kts 354°
2026-05-06 11:30 21.50328 114.21469 14081 ft 404 kts 354°
2026-05-06 11:30 21.53161 114.21202 13889 ft 413 kts 354°
2026-05-06 11:30 21.56041 114.20930 13609 ft 410 kts 354°
2026-05-06 11:30 21.58810 114.20671 13198 ft 389 kts 354°
2026-05-06 11:31 21.61450 114.20422 12771 ft 374 kts 354°
2026-05-06 11:31 21.63996 114.20181 12356 ft 362 kts 354°
2026-05-06 11:31 21.66469 114.19947 11937 ft 352 kts 354°
2026-05-06 11:31 21.68886 114.19719 11521 ft 345 kts 354°
2026-05-06 11:32 21.71262 114.19495 11112 ft 340 kts 354°
2026-05-06 11:32 21.73595 114.19274 10861 ft 331 kts 354°
2026-05-06 11:32 21.75857 114.19060 10778 ft 327 kts 354°
2026-05-06 11:32 21.78155 114.18842 10696 ft 332 kts 354°
2026-05-06 11:33 21.80455 114.18624 10550 ft 331 kts 354°
2026-05-06 11:33 21.82751 114.18408 10385 ft 331 kts 354°
2026-05-06 11:33 21.85047 114.18190 10188 ft 332 kts 354°
2026-05-06 11:33 21.87354 114.17972 9961 ft 334 kts 354°
2026-05-06 11:34 21.89663 114.17753 9727 ft 335 kts 354°
2026-05-06 11:34 21.91999 114.17532 9491 ft 336 kts 354°
2026-05-06 11:34 21.94329 114.17311 9243 ft 337 kts 354°
2026-05-06 11:34 21.96633 114.17092 9031 ft 337 kts 354°
2026-05-06 11:35 21.98972 114.16871 8791 ft 338 kts 354°
2026-05-06 11:35 22.01328 114.16647 8559 ft 342 kts 354°
2026-05-06 11:35 22.03731 114.16419 8265 ft 354 kts 354°
2026-05-06 11:35 22.06177 114.16188 7805 ft 347 kts 354°
2026-05-06 11:36 22.08542 114.15965 7340 ft 336 kts 354°
2026-05-06 11:36 22.10848 114.15746 6876 ft 329 kts 354°
2026-05-06 11:36 22.13102 114.15531 6410 ft 320 kts 354°
2026-05-06 11:36 22.15276 114.15319 5939 ft 307 kts 352°
2026-05-06 11:37 22.17321 114.14815 5658 ft 294 kts 341°
2026-05-06 11:37 22.19201 114.14078 5540 ft 282 kts 338°
2026-05-06 11:37 22.20992 114.13297 5399 ft 274 kts 337°
2026-05-06 11:37 22.22735 114.12516 5255 ft 266 kts 337°
2026-05-06 11:38 22.24332 114.11797 5067 ft 241 kts 336°
2026-05-06 11:38 22.25765 114.10976 4844 ft 227 kts 328°
2026-05-06 11:38 22.27081 114.10121 4686 ft 215 kts 332°
2026-05-06 11:38 22.28402 114.09449 4550 ft 206 kts 337°
2026-05-06 11:39 22.29729 114.08926 4400 ft 201 kts 340°
2026-05-06 11:39 22.31044 114.08445 4247 ft 198 kts 341°
2026-05-06 11:39 22.32371 114.07964 4149 ft 206 kts 342°
2026-05-06 11:39 22.33817 114.07757 4045 ft 214 kts 358°
2026-05-06 11:40 22.35298 114.07911 3922 ft 209 kts 10°
2026-05-06 11:40 22.36637 114.08377 3766 ft 200 kts 37°
2026-05-06 11:40 22.37498 114.09479 3576 ft 183 kts 56°
2026-05-06 11:40 22.37894 114.10674 3312 ft 166 kts 96°
2026-05-06 11:41 22.37557 114.11845 2850 ft 165 kts 106°
2026-05-06 11:41 22.37162 114.12996 2450 ft 162 kts 114°
2026-05-06 11:41 22.36633 114.14053 2093 ft 159 kts 125°
2026-05-06 11:41 22.35935 114.14940 1809 ft 152 kts 135°
2026-05-06 11:42 22.35149 114.15671 1564 ft 146 kts 142°
2026-05-06 11:42 22.34390 114.16405 1221 ft 148 kts 116°
2026-05-06 11:42 22.33999 114.17394 931 ft 147 kts 118°
2026-05-06 11:42 22.33381 114.18281 558 ft 150 kts 131°
2026-05-06 11:43 22.32664 114.19097 284 ft 149 kts 134°
2026-05-06 11:43 22.31949 114.19900 47 ft 147 kts 132°
2026-05-06 11:43 22.31310 114.20641 363 ft 128 kts 133°
2026-05-06 11:44 22.29976 114.22014 466 ft 144 kts 171°
2026-05-06 11:44 22.29043 114.21738 663 ft 136 kts 211°
2026-05-06 11:44 22.28173 114.21423 1239 ft 134 kts 190°
2026-05-06 11:44 22.27310 114.21366 1965 ft 119 kts 180°
2026-05-06 11:45 22.26441 114.21453 2388 ft 134 kts 160°
2026-05-06 11:45 22.25475 114.21918 2630 ft 172 kts 188°
2026-05-06 11:45 22.24225 114.21930 3113 ft 202 kts 158°
2026-05-06 11:45 22.23037 114.22817 3070 ft 209 kts 137°
2026-05-06 11:46 22.22010 114.23922 3022 ft 208 kts 134°
2026-05-06 11:46 22.20899 114.24899 3016 ft 207 kts 161°
2026-05-06 11:46 22.19486 114.25140 3025 ft 206 kts 184°
2026-05-06 11:46 22.18061 114.24973 3013 ft 207 kts 189°
2026-05-06 11:47 22.16641 114.24734 3016 ft 206 kts 189°
2026-05-06 11:47 22.15224 114.24486 3016 ft 206 kts 189°
2026-05-06 11:47 22.13807 114.24237 3018 ft 206 kts 189°
2026-05-06 11:47 22.12391 114.23988 3015 ft 206 kts 189°
2026-05-06 11:48 22.10973 114.23739 3013 ft 207 kts 190°
2026-05-06 11:48 22.09697 114.23123 3032 ft 204 kts 230°
2026-05-06 11:48 22.09207 114.21724 3027 ft 205 kts 275°
2026-05-06 11:48 22.09626 114.20278 3042 ft 203 kts 305°
2026-05-06 11:49 22.10611 114.19173 3015 ft 206 kts 323°
2026-05-06 11:49 22.11776 114.18310 3019 ft 206 kts 324°
2026-05-06 11:49 22.12948 114.17414 3015 ft 206 kts 324°
2026-05-06 11:49 22.14156 114.16577 3014 ft 207 kts 328°
2026-05-06 11:50 22.15434 114.15881 3027 ft 204 kts 338°
2026-05-06 11:50 22.16731 114.15475 3018 ft 187 kts 350°
2026-05-06 11:50 22.18034 114.15288 3021 ft 189 kts 353°
2026-05-06 11:50 22.19326 114.15139 3008 ft 181 kts 354°
2026-05-06 11:51 22.20527 114.15013 2995 ft 168 kts 354°
2026-05-06 11:51 22.21693 114.14892 3002 ft 168 kts 354°
2026-05-06 11:51 22.22850 114.14772 3007 ft 167 kts 354°
2026-05-06 11:51 22.24009 114.14653 3012 ft 166 kts 354°
2026-05-06 11:52 22.25159 114.14534 3017 ft 166 kts 354°
2026-05-06 11:52 22.26284 114.14418 2995 ft 155 kts 354°
2026-05-06 11:52 22.27352 114.14309 3008 ft 155 kts 354°
2026-05-06 11:52 22.28414 114.14200 3008 ft 149 kts 354°
2026-05-06 11:53 22.29451 114.14093 2945 ft 152 kts 353°
2026-05-06 11:53 22.30495 114.13985 2485 ft 148 kts 356°
2026-05-06 11:53 22.31502 114.13973 2062 ft 144 kts
2026-05-06 11:53 22.32439 114.14340 1615 ft 145 kts 34°
2026-05-06 11:54 22.33156 114.15088 1257 ft 143 kts 58°
2026-05-06 11:54 22.33563 114.16062 1080 ft 146 kts 84°
2026-05-06 11:54 22.33512 114.17153 920 ft 145 kts 98°
2026-05-06 11:54 22.33251 114.18213 533 ft 146 kts 117°
2026-05-06 11:55 22.32698 114.19079 160 ft 136 kts 133°
2026-05-06 11:55 22.32071 114.19746 46 ft 118 kts 132°
2026-05-06 11:55 22.31588 114.20303 37 ft 75 kts 133°
2026-05-06 11:55 22.31349 114.20573 38 ft 32 kts 134°
2026-05-06 11:56 22.31253 114.20719 38 ft 10 kts 73°
2026-05-06 11:56 22.31291 114.20744 36 ft 6 kts 10°
2026-05-06 11:56 22.31319 114.20733 38 ft 3 kts 338°
2026-05-06 11:56 22.31358 114.20712 38 ft 9 kts 325°
2026-05-06 11:57 22.31414 114.20655 38 ft 14 kts 313°
2026-05-06 11:57 22.31493 114.20567 36 ft 19 kts 314°
2026-05-06 11:57 22.31598 114.20450 38 ft 24 kts 314°
2026-05-06 11:57 22.31725 114.20307 36 ft 29 kts 314°
2026-05-06 11:58 22.31873 114.20141 37 ft 33 kts 313°
2026-05-06 11:58 22.32012 114.19982 36 ft 21 kts 314°
2026-05-06 11:58 22.32117 114.19867 38 ft 23 kts 310°
2026-05-06 11:58 22.32237 114.19738 38 ft 27 kts 313°
2026-05-06 11:59 22.32378 114.19591 37 ft 30 kts 318°
2026-05-06 11:59 22.32464 114.19551 38 ft 7 kts 41°
2026-05-06 11:59 22.32491 114.19590 37 ft 8 kts 45°
2026-05-06 11:59 22.32543 114.19643 36 ft 13 kts 43°
2026-05-06 12:00 22.32618 114.19721 37 ft 17 kts 45°
2026-05-06 12:00 22.32712 114.19821 38 ft 21 kts 44°
2026-05-06 12:00 22.32783 114.19907 36 ft 8 kts 79°
2026-05-06 12:00 22.32760 114.19958 38 ft 8 kts 134°
2026-05-06 12:01 22.32720 114.20006 36 ft 10 kts 132°
2026-05-06 12:01 22.32669 114.20065 38 ft 7 kts 140°
2026-05-06 12:01 22.32660 114.20064 38 ft 1 kts 209°
2026-05-06 12:01 22.32630 114.20046 38 ft 8 kts 209°
2026-05-06 12:02 22.32571 114.20025 38 ft 11 kts 195°
2026-05-06 12:02 22.32484 114.19999 38 ft 14 kts 203°
2026-05-06 12:02 22.32400 114.19924 37 ft 18 kts 236°
2026-05-06 12:02 22.32342 114.19794 37 ft 20 kts 248°
2026-05-06 12:03 22.32374 114.19726 38 ft 8 kts 334°
2026-05-06 12:03 22.32439 114.19720 38 ft 12 kts
2026-05-06 12:03 22.32449 114.19719 38 ft 0 kts 359°